Location: Hamilton
(37.7830°S, 175.2830°E)
Time: 12:02:30
(UTC+12:00)

MOS 1 - Visible Passes

Search period start: 26 April 2019 00:00
Search period end: 06 May 2019 00:00
Orbit: 879 x 891 km, 99.2° (Epoch: 25 April)

Date Brightness Start Highest point End Pass type
(mag) Time Alt. Az. Time Alt. Az. Time Alt. Az.
03 May 6.4 06:31:04 10° ENE 06:35:45 27° ESE 06:40:27 10° S visible
04 May 6.4 06:29:22 10° ENE 06:33:58 26° ESE 06:38:37 10° S visible
05 May 6.5 06:27:40 10° ENE 06:32:11 25° ESE 06:36:45 10° SSE visible
